Tracking 19562 objects as of 25-Mar-2019
HD Live streaming from Space Station
objects crossing your sky now

GORIZONT 2

Track GORIZONT 2 now!
GORIZONT 2 is classified as:


NORAD ID: 11440
Int'l Code: 1979-062A
Perigee: 35,766.9 km
Apogee: 35,807.4 km
Inclination: 11.8 °
Period: 1,435.8 minutes
Semi major axis: 42158 km
RCS: 3.981 m2 (large)
Launch date: July 5, 1979
Source: Commonwealth of Independent States (former USSR) (CIS)
Launch site: TYURATAM MISSILE AND SPACE COMPLEX (TTMTR)
aabbcc
Your satellite tracking list
Your tracking list is empty




NASA's NSSDC Master Catalog

Two Line Element Set (TLE):
1 11440U 79062A   19084.10535611 -.00000228  00000-0  00000+0 0  9990
2 11440  11.7898 315.9425 0004804 331.3591  19.3828  1.00295389111524
Source of the keplerian elements: AFSPC